When you browse on this site, cookies collect data to enhance your experience and personalize the content and advertising you see.
Visit our Privacy Policy to learn more. By continuing to use the site, you agree to this use of cookies and data.
  • In Slovakia
  • List of Countries
  • For 7 days
  • Water Temperature
  • Satellite Maps
  • Weather Map
  • Weather Widgets
  • user-avatar
    Login

    Hourly Weather Ondjiwa

    Today, 21 May, Tuesday

    Time Temperature Precipitation Wind Pressure Humidity
    00:00 +19°C° 0 mm 2 mps 667 mmHg 27%
    01:00 +18°C° 0 mm 2 mps 667 mmHg 29%
    02:00 +17°C° 0 mm 2 mps 667 mmHg 31%
    03:00 +17°C° 0 mm 2 mps 667 mmHg 34%
    04:00 +16°C° 0 mm 2 mps 667 mmHg 36%
    05:00 +16°C° 0 mm 2 mps 667 mmHg 38%
    06:00 +16°C° 0 mm 2 mps 667 mmHg 40%
    07:00 +17°C° 0 mm 2 mps 668 mmHg 39%
    08:00 +20°C° 0 mm 2 mps 669 mmHg 33%
    09:00 +25°C° 0 mm 3 mps 669 mmHg 28%
    10:00 +29°C° 0 mm 3 mps 670 mmHg 22%
    11:00 +30°C° 0 mm 3 mps 670 mmHg 19%
    12:00 +33°C° 0 mm 3 mps 669 mmHg 16%
    13:00 +34°C° 0 mm 4 mps 669 mmHg 16%
    14:00 +34°C° 0 mm 4 mps 669 mmHg 16%
    15:00 +34°C° 0 mm 3 mps 668 mmHg 16%
    16:00 +33°C° 0 mm 3 mps 668 mmHg 16%
    17:00 +30°C° 0 mm 3 mps 668 mmHg 20%
    18:00 +27°C° 0 mm 2 mps 667 mmHg 24%
    19:00 +24°C° 0 mm 2 mps 667 mmHg 27%
    20:00 +23°C° 0 mm 2 mps 667 mmHg 28%
    21:00 +21°C° 0 mm 2 mps 667 mmHg 30%
    22:00 +21°C° 0 mm 3 mps 667 mmHg 31%
    23:00 +20°C° 0 mm 2 mps 667 mmHg 32%

    Tomorrow, 22 May, Wednesday

    Time Temperature Precipitation Wind Pressure Humidity
    00:00 +19°C° 0 mm 2 mps 667 mmHg 34%
    01:00 +18°C° 0 mm 2 mps 667 mmHg 35%
    02:00 +18°C° 0 mm 2 mps 667 mmHg 37%
    03:00 +17°C° 0 mm 2 mps 667 mmHg 39%
    04:00 +16°C° 0 mm 2 mps 666 mmHg 40%
    05:00 +16°C° 0 mm 2 mps 667 mmHg 41%
    06:00 +16°C° 0 mm 2 mps 667 mmHg 42%
    07:00 +16°C° 0 mm 1 mps 667 mmHg 43%
    08:00 +20°C° 0 mm 2 mps 668 mmHg 38%
    09:00 +25°C° 0 mm 3 mps 669 mmHg 33%
    10:00 +29°C° 0 mm 3 mps 670 mmHg 27%
    11:00 +30°C° 0 mm 3 mps 670 mmHg 24%
    12:00 +33°C° 0 mm 3 mps 669 mmHg 21%
    13:00 +34°C° 0 mm 3 mps 669 mmHg 17%
    14:00 +34°C° 0 mm 2 mps 669 mmHg 17%
    15:00 +34°C° 0 mm 2 mps 668 mmHg 16%
    16:00 +33°C° 0 mm 1 mps 668 mmHg 16%
    17:00 +31°C° 0 mm 2 mps 667 mmHg 19%
    18:00 +29°C° 0 mm 2 mps 667 mmHg 21%
    19:00 +27°C° 0 mm 2 mps 667 mmHg 24%
    20:00 +26°C° 0 mm 2 mps 668 mmHg 27%
    21:00 +26°C° 0 mm 2 mps 668 mmHg 30%
    22:00 +25°C° 0 mm 2 mps 668 mmHg 33%
    23:00 +25°C° 0 mm 2 mps 668 mmHg 33%

    Day after tomorrow, 23 May, Thursday

    Time Temperature Precipitation Wind Pressure Humidity
    00:00 +24°C° 0 mm 1 mps 668 mmHg 32%
    01:00 +24°C° 0 mm 1 mps 668 mmHg 32%
    02:00 +23°C° 0 mm 1 mps 668 mmHg 32%
    03:00 +22°C° 0 mm 1 mps 667 mmHg 33%
    04:00 +21°C° 0 mm 1 mps 667 mmHg 33%
    05:00 +21°C° 0 mm 1 mps 667 mmHg 34%
    06:00 +21°C° 0 mm 1 mps 667 mmHg 35%
    07:00 +21°C° 0 mm 1 mps 668 mmHg 35%
    08:00 +23°C° 0 mm 1 mps 668 mmHg 32%
    09:00 +25°C° 0 mm 1 mps 669 mmHg 28%
    10:00 +27°C° 0 mm 1 mps 670 mmHg 24%
    11:00 +29°C° 0 mm 1 mps 670 mmHg 22%
    12:00 +30°C° 0 mm 2 mps 669 mmHg 20%
    13:00 +32°C° 0 mm 2 mps 669 mmHg 18%
    14:00 +32°C° 0 mm 2 mps 668 mmHg 18%
    15:00 +32°C° 0 mm 2 mps 668 mmHg 18%
    16:00 +33°C° 0 mm 3 mps 668 mmHg 18%
    17:00 +30°C° 0 mm 2 mps 667 mmHg 21%
    18:00 +27°C° 0 mm 1 mps 667 mmHg 24%
    19:00 +22°C° 0 mm 0 mps 667 mmHg 28%
    20:00 +24°C° 0 mm 1 mps 667 mmHg 29%
    21:00 +24°C° 0 mm 2 mps 668 mmHg 30%
    22:00 +24°C° 0 mm 2 mps 668 mmHg 31%
    23:00 +24°C° 0 mm 2 mps 668 mmHg 33%

    24 May, Friday

    Time Temperature Precipitation Wind Pressure Humidity
    00:00 +24°C° 0 mm 2 mps 668 mmHg 34%
    01:00 +24°C° 0 mm 2 mps 668 mmHg 36%
    02:00 +23°C° 0 mm 1 mps 668 mmHg 36%
    03:00 +23°C° 0 mm 1 mps 668 mmHg 37%
    04:00 +23°C° 0 mm 1 mps 667 mmHg 37%
    05:00 +22°C° 0 mm 1 mps 668 mmHg 39%
    06:00 +21°C° 0 mm 2 mps 668 mmHg 40%
    07:00 +20°C° 0 mm 2 mps 669 mmHg 42%
    08:00 +24°C° 0 mm 3 mps 670 mmHg 36%
    09:00 +27°C° 0 mm 3 mps 670 mmHg 31%
    10:00 +29°C° 0 mm 4 mps 671 mmHg 25%
    11:00 +30°C° 0 mm 4 mps 671 mmHg 23%
    12:00 +33°C° 0 mm 5 mps 671 mmHg 21%
    13:00 +34°C° 0 mm 5 mps 670 mmHg 19%
    14:00 +33°C° 0 mm 4 mps 670 mmHg 20%
    15:00 +33°C° 0 mm 4 mps 669 mmHg 21%
    16:00 +31°C° 0 mm 3 mps 669 mmHg 22%
    17:00 +29°C° 0 mm 3 mps 669 mmHg 24%
    18:00 +28°C° 0 mm 3 mps 669 mmHg 27%
    19:00 +26°C° 0 mm 2 mps 669 mmHg 29%
    20:00 +25°C° 0 mm 2 mps 669 mmHg 30%
    21:00 +24°C° 0 mm 3 mps 669 mmHg 32%
    22:00 +22°C° 0 mm 3 mps 669 mmHg 33%
    23:00 +22°C° 0 mm 3 mps 669 mmHg 34%

    25 May, Saturday

    Time Temperature Precipitation Wind Pressure Humidity
    00:00 +21°C° 0 mm 3 mps 669 mmHg 36%
    01:00 +20°C° 0 mm 3 mps 668 mmHg 37%
    02:00 +20°C° 0 mm 3 mps 668 mmHg 39%
    03:00 +19°C° 0 mm 3 mps 668 mmHg 40%
    04:00 +18°C° 0 mm 3 mps 668 mmHg 41%
    05:00 +18°C° 0 mm 2 mps 668 mmHg 41%
    06:00 +18°C° 0 mm 2 mps 669 mmHg 41%
    07:00 +18°C° 0 mm 2 mps 670 mmHg 41%
    08:00 +22°C° 0 mm 4 mps 670 mmHg 34%
    09:00 +26°C° 0 mm 5 mps 671 mmHg 26%
    10:00 +30°C° 0 mm 6 mps 672 mmHg 19%
    11:00 +32°C° 0 mm 6 mps 671 mmHg 18%
    12:00 +33°C° 0 mm 5 mps 671 mmHg 17%
    13:00 +35°C° 0 mm 4 mps 670 mmHg 15%
    14:00 +34°C° 0 mm 4 mps 670 mmHg 15%
    15:00 +34°C° 0 mm 3 mps 669 mmHg 15%
    16:00 +34°C° 0 mm 3 mps 669 mmHg 15%
    17:00 +30°C° 0 mm 3 mps 668 mmHg 18%
    18:00 +27°C° 0 mm 3 mps 668 mmHg 21%
    19:00 +24°C° 0 mm 2 mps 668 mmHg 24%
    20:00 +23°C° 0 mm 2 mps 668 mmHg 26%
    21:00 +21°C° 0 mm 3 mps 668 mmHg 27%
    22:00 +20°C° 0 mm 3 mps 668 mmHg 28%
    23:00 +20°C° 0 mm 3 mps 668 mmHg 30%

    26 May, Sunday

    Time Temperature Precipitation Wind Pressure Humidity
    00:00 +19°C° 0 mm 3 mps 668 mmHg 31%
    01:00 +19°C° 0 mm 4 mps 668 mmHg 32%
    02:00 +18°C° 0 mm 4 mps 668 mmHg 34%
    03:00 +17°C° 0 mm 3 mps 667 mmHg 36%
    04:00 +17°C° 0 mm 3 mps 667 mmHg 38%
    05:00 +16°C° 0 mm 3 mps 668 mmHg 40%
    06:00 +16°C° 0 mm 3 mps 668 mmHg 41%
    07:00 +16°C° 0 mm 3 mps 669 mmHg 43%
    08:00 +19°C° 0 mm 4 mps 670 mmHg 36%
    09:00 +23°C° 0 mm 5 mps 670 mmHg 29%
    10:00 +27°C° 0 mm 5 mps 671 mmHg 23%
    11:00 +29°C° 0 mm 5 mps 671 mmHg 21%
    12:00 +30°C° 0 mm 4 mps 670 mmHg 18%
    13:00 +33°C° 0 mm 3 mps 670 mmHg 16%
    14:00 +33°C° 0 mm 3 mps 669 mmHg 16%
    15:00 +32°C° 0 mm 2 mps 669 mmHg 16%
    16:00 +32°C° 0 mm 2 mps 668 mmHg 16%
    17:00 +29°C° 0 mm 2 mps 668 mmHg 19%
    18:00 +26°C° 0 mm 2 mps 668 mmHg 23%
    19:00 +24°C° 0 mm 2 mps 668 mmHg 26%
    20:00 +23°C° 0 mm 2 mps 668 mmHg 28%
    21:00 +21°C° 0 mm 2 mps 668 mmHg 29%
    22:00 +20°C° 0 mm 3 mps 668 mmHg 31%
    23:00 +19°C° 0 mm 3 mps 668 mmHg 33%
    Show more